THORAD AGENA D DEB, 39592

Orbit data source: Space-Track

THORAD AGENA D DEB, 39592 is space debris in SSO originally from a launch on Wed, 08 Apr 1970 UTC launched from the Air Force Western Test Range (AFWTR). Debris objects in space refer to the collection of defunct objects orbiting the Earth. Examples of debris include non-operational satellites, rocket bodies, and fragments generated from explosions, collisions, or faulty payload assembly.

Loading next visibility...
Identifier
39592, 1970-025QT
Orbit
SSO
Country
Flag of USUS
Related business
Manufacturer
Unknown
Mission
Spacecraft
Bus & Motor
Unknown
Mass
Unknown
Launch date (UTC)
1970-04-08 (56 years ago)
Launch vehicle
Unknown
Launch site
Air Force Western Test Range (AFWTR)
Object type
Payload
Rocket body
Debris
Shape & HBR
Unknown shape, 0.1 m
Radar Cross Section
Small (<0.1 m²)

Expand to show TLE details & history
Last TLE update: 2 days ago

TLE from 2 days ago
0 THORAD AGENA D DEB
1 39592U 70025QT  25347.52885700  .00001173  00000-0  16835-2 0  9995
2 39592 100.1436 358.1224 0002474 156.3733 203.7518 13.58201591583945
Epoch: 2025-12-13T12:41Z
TLE epoch observation values (Epoch: 2025-12-13T12:41:33.244Z)
Latitude
-0.00007°
Longitude
85.27907°
Altitude
1,046.697 km
Speed
7.328 km/s
True Right ascension
23h 52m 29s
True Declination
0° 00' 00"
Sunlit
Object was in daylight at epoch
Visualization orbit readout
Latitude
Unknown
Longitude
Unknown
Altitude
Unknown
Speed
Unknown
Apparent Right ascension
Unknown
Apparent Declination
Unknown
Sunlit
N/A
Visualization observer readout
Local Sidereal Time
07:49:08
Azimuth
Unknown
Elevation
Unknown
Doppler factor
Unknown
Orbital elements
Apogee altitude
1,041.384 km
Perigee altitude
1,037.714 km
Semi-major axis
7,417.686 km
Eccentricity
0.00025
Inclination
100.1436°
RAAN
358.1224°
Arg. of periapsis
156.3733°
True anomaly
203.74038°
Mean anomaly
203.7518°
Eccentric anomaly
203.74609°
Mean motion
3.39735 °/min
Orbital period
105.96 mins
BSTAR
0.0016835
Loading maneuver chart data...
Computing Atmospheric mass density...

Documentation

Showing up to 5 results
|